PWSweather.com
Personal Weather Stations
Station Observations
UGLTEWKE1
3 Beckford Close, BeckfordGB GL20 7

3 Beckford CloseBeckfordGB GL20 7

Lat: 52.01582, Lon: -2.037782

Elevation: 112

Station Type: Davis Vantage Pro2

http://www.theshieling.net/weatherdavis.php

High Low Average
Temperature 53.4°F11.9°C 43.2°F6.2°C 48.0°F8.9°C
Dew Point 44.6°F7.0°C 36.9°F2.7°C 39.4°F4.1°C
Winds 3.0 mph 4.8 kmh Calm Calm Calm SWCalm SW
Wind Gusts 12.0 mph19.3 kmh -- 2.0 mph3.2 kmh
Humidity 89% 54% 73%
Pressure 30.53 in1033.9 mb 30.35 in1027.8 mb -
Precipitation 0.00 in0.0 mm - -
Hour Temp Dew Point Humidity Winds Wind Gusts Pressure Precip Precip Rate Daily Precip Total
12:00 AM 46.9°F8.3°C 43.5°F6.4°C 88% 1.0 mph WNW1.6 kmh WNW 4.0 mph6.4 kmh 30.35 in1027.8 mb 0.00 in0.0 mm 0.00 in0.0 mm 0.00 in0.0 mm
12:05 AM 46.9°F8.3°C 43.5°F6.4°C 88% Calm Calm 4.0 mph6.4 kmh 30.35 in1027.8 mb 0.00 in0.0 mm 0.00 in0.0 mm 0.00 in0.0 mm
12:10 AM 47.1°F8.4°C 43.7°F6.5°C 88% Calm Calm 3.0 mph4.8 kmh 30.35 in1027.8 mb 0.00 in0.0 mm 0.00 in0.0 mm 0.00 in0.0 mm
12:15 AM 47.1°F8.4°C 43.7°F6.5°C 88% Calm Calm -- 30.35 in1027.8 mb 0.00 in0.0 mm 0.00 in0.0 mm 0.00 in0.0 mm
12:20 AM 47.1°F8.4°C 43.5°F6.4°C 87% Calm Calm -- 30.35 in1027.8 mb 0.00 in0.0 mm 0.00 in0.0 mm 0.00 in0.0 mm
12:25 AM 47.1°F8.4°C 43.7°F6.5°C 88% Calm Calm -- 30.35 in1027.8 mb 0.00 in0.0 mm 0.00 in0.0 mm 0.00 in0.0 mm
12:30 AM 47.1°F8.4°C 43.7°F6.5°C 88% Calm Calm -- 30.35 in1027.8 mb 0.00 in0.0 mm 0.00 in0.0 mm 0.00 in0.0 mm
12:35 AM 47.3°F8.5°C 43.9°F6.6°C 88% Calm Calm -- 30.35 in1027.8 mb 0.00 in0.0 mm 0.00 in0.0 mm 0.00 in0.0 mm
12:40 AM 47.5°F8.6°C 43.9°F6.6°C 87% Calm Calm -- 30.35 in1027.8 mb 0.00 in0.0 mm 0.00 in0.0 mm 0.00 in0.0 mm
12:45 AM 47.5°F8.6°C 44.1°F6.7°C 88% Calm Calm -- 30.35 in1027.8 mb 0.00 in0.0 mm 0.00 in0.0 mm 0.00 in0.0 mm
12:50 AM 47.5°F8.6°C 43.9°F6.6°C 87% Calm Calm -- 30.35 in1027.8 mb 0.00 in0.0 mm 0.00 in0.0 mm 0.00 in0.0 mm
12:55 AM 47.7°F8.7°C 44.2°F6.8°C 88% Calm Calm -- 30.36 in1028.1 mb 0.00 in0.0 mm 0.00 in0.0 mm 0.00 in0.0 mm
01:00 AM 47.7°F8.7°C 44.2°F6.8°C 88% Calm Calm -- 30.36 in1028.1 mb 0.00 in0.0 mm 0.00 in0.0 mm 0.00 in0.0 mm
01:05 AM 47.7°F8.7°C 44.2°F6.8°C 88% Calm Calm -- 30.36 in1028.1 mb 0.00 in0.0 mm 0.00 in0.0 mm 0.00 in0.0 mm
01:10 AM 47.7°F8.7°C 44.2°F6.8°C 88% Calm Calm -- 30.37 in1028.4 mb 0.00 in0.0 mm 0.00 in0.0 mm 0.00 in0.0 mm
01:15 AM 47.7°F8.7°C 44.2°F6.8°C 88% Calm Calm -- 30.37 in1028.4 mb 0.00 in0.0 mm 0.00 in0.0 mm 0.00 in0.0 mm
01:20 AM 47.7°F8.7°C 44.2°F6.8°C 88% Calm Calm -- 30.37 in1028.4 mb 0.00 in0.0 mm 0.00 in0.0 mm 0.00 in0.0 mm
01:25 AM 47.7°F8.7°C 44.2°F6.8°C 88% Calm Calm -- 30.37 in1028.4 mb 0.00 in0.0 mm 0.00 in0.0 mm 0.00 in0.0 mm
01:30 AM 47.7°F8.7°C 44.2°F6.8°C 88% Calm Calm -- 30.37 in1028.4 mb 0.00 in0.0 mm 0.00 in0.0 mm 0.00 in0.0 mm
01:35 AM 47.7°F8.7°C 44.2°F6.8°C 88% Calm Calm -- 30.37 in1028.4 mb 0.00 in0.0 mm 0.00 in0.0 mm 0.00 in0.0 mm
01:40 AM 47.7°F8.7°C 44.6°F7.0°C 89% Calm Calm -- 30.37 in1028.4 mb 0.00 in0.0 mm 0.00 in0.0 mm 0.00 in0.0 mm
01:45 AM 47.7°F8.7°C 44.2°F6.8°C 88% Calm Calm -- 30.37 in1028.4 mb 0.00 in0.0 mm 0.00 in0.0 mm 0.00 in0.0 mm
01:50 AM 47.7°F8.7°C 44.2°F6.8°C 88% Calm Calm -- 30.37 in1028.4 mb 0.00 in0.0 mm 0.00 in0.0 mm 0.00 in0.0 mm
01:55 AM 47.8°F8.8°C 44.4°F6.9°C 88% Calm Calm 4.0 mph6.4 kmh 30.38 in1028.8 mb 0.00 in0.0 mm 0.00 in0.0 mm 0.00 in0.0 mm
02:00 AM 48.0°F8.9°C 44.6°F7.0°C 88% Calm Calm -- 30.38 in1028.8 mb 0.00 in0.0 mm 0.00 in0.0 mm 0.00 in0.0 mm
02:05 AM 47.8°F8.8°C 44.4°F6.9°C 88% Calm Calm -- 30.38 in1028.8 mb 0.00 in0.0 mm 0.00 in0.0 mm 0.00 in0.0 mm
02:10 AM 48.0°F8.9°C 44.6°F7.0°C 88% Calm Calm -- 30.38 in1028.8 mb 0.00 in0.0 mm 0.00 in0.0 mm 0.00 in0.0 mm
02:15 AM 47.8°F8.8°C 44.4°F6.9°C 88% Calm Calm -- 30.39 in1029.1 mb 0.00 in0.0 mm 0.00 in0.0 mm 0.00 in0.0 mm
02:20 AM 47.8°F8.8°C 44.4°F6.9°C 88% Calm Calm -- 30.39 in1029.1 mb 0.00 in0.0 mm 0.00 in0.0 mm 0.00 in0.0 mm
02:25 AM 47.8°F8.8°C 44.4°F6.9°C 88% Calm Calm -- 30.39 in1029.1 mb 0.00 in0.0 mm 0.00 in0.0 mm 0.00 in0.0 mm
02:30 AM 47.8°F8.8°C 44.4°F6.9°C 88% Calm Calm -- 30.39 in1029.1 mb 0.00 in0.0 mm 0.00 in0.0 mm 0.00 in0.0 mm
02:35 AM 47.8°F8.8°C 44.4°F6.9°C 88% Calm Calm -- 30.39 in1029.1 mb 0.00 in0.0 mm 0.00 in0.0 mm 0.00 in0.0 mm
02:40 AM 47.8°F8.8°C 44.2°F6.8°C 87% Calm Calm -- 30.39 in1029.1 mb 0.00 in0.0 mm 0.00 in0.0 mm 0.00 in0.0 mm
02:45 AM 47.8°F8.8°C 43.2°F6.2°C 84% Calm Calm 3.0 mph4.8 kmh 30.39 in1029.1 mb 0.00 in0.0 mm 0.00 in0.0 mm 0.00 in0.0 mm
02:50 AM 48.2°F9.0°C 43.0°F6.1°C 82% Calm Calm -- 30.40 in1029.5 mb 0.00 in0.0 mm 0.00 in0.0 mm 0.00 in0.0 mm
02:55 AM 48.4°F9.1°C 42.8°F6.0°C 81% Calm Calm -- 30.40 in1029.5 mb 0.00 in0.0 mm 0.00 in0.0 mm 0.00 in0.0 mm
03:00 AM 48.4°F9.1°C 42.4°F5.8°C 80% Calm Calm -- 30.40 in1029.5 mb 0.00 in0.0 mm 0.00 in0.0 mm 0.00 in0.0 mm
03:05 AM 48.7°F9.3°C 42.4°F5.8°C 79% Calm Calm 3.0 mph4.8 kmh 30.40 in1029.5 mb 0.00 in0.0 mm 0.00 in0.0 mm 0.00 in0.0 mm
03:10 AM 48.7°F9.3°C 42.3°F5.7°C 78% Calm Calm -- 30.40 in1029.5 mb 0.00 in0.0 mm 0.00 in0.0 mm 0.00 in0.0 mm
03:15 AM 48.7°F9.3°C 42.3°F5.7°C 78% Calm Calm 1.0 mph1.6 kmh 30.40 in1029.5 mb 0.00 in0.0 mm 0.00 in0.0 mm 0.00 in0.0 mm
03:20 AM 48.7°F9.3°C 42.3°F5.7°C 78% Calm Calm -- 30.40 in1029.5 mb 0.00 in0.0 mm 0.00 in0.0 mm 0.00 in0.0 mm
03:25 AM 48.7°F9.3°C 42.3°F5.7°C 78% Calm Calm -- 30.40 in1029.5 mb 0.00 in0.0 mm 0.00 in0.0 mm 0.00 in0.0 mm
03:30 AM 48.7°F9.3°C 42.3°F5.7°C 78% Calm Calm -- 30.40 in1029.5 mb 0.00 in0.0 mm 0.00 in0.0 mm 0.00 in0.0 mm
03:35 AM 48.7°F9.3°C 42.3°F5.7°C 78% Calm Calm -- 30.40 in1029.5 mb 0.00 in0.0 mm 0.00 in0.0 mm 0.00 in0.0 mm
03:40 AM 48.6°F9.2°C 41.7°F5.4°C 77% Calm Calm -- 30.40 in1029.5 mb 0.00 in0.0 mm 0.00 in0.0 mm 0.00 in0.0 mm
03:45 AM 48.6°F9.2°C 41.7°F5.4°C 77% Calm Calm -- 30.40 in1029.5 mb 0.00 in0.0 mm 0.00 in0.0 mm 0.00 in0.0 mm
03:50 AM 48.6°F9.2°C 42.1°F5.6°C 78% Calm Calm -- 30.40 in1029.5 mb 0.00 in0.0 mm 0.00 in0.0 mm 0.00 in0.0 mm
03:55 AM 48.6°F9.2°C 41.0°F5.0°C 75% 1.0 mph NNW1.6 kmh NNW 9.0 mph14.5 kmh 30.40 in1029.5 mb 0.00 in0.0 mm 0.00 in0.0 mm 0.00 in0.0 mm
04:00 AM 48.6°F9.2°C 40.3°F4.6°C 73% Calm Calm 4.0 mph6.4 kmh 30.40 in1029.5 mb 0.00 in0.0 mm 0.00 in0.0 mm 0.00 in0.0 mm
04:05 AM 48.6°F9.2°C 39.9°F4.4°C 72% Calm Calm -- 30.40 in1029.5 mb 0.00 in0.0 mm 0.00 in0.0 mm 0.00 in0.0 mm
04:10 AM 48.6°F9.2°C 39.9°F4.4°C 72% Calm Calm 2.0 mph3.2 kmh 30.40 in1029.5 mb 0.00 in0.0 mm 0.00 in0.0 mm 0.00 in0.0 mm
04:15 AM 48.4°F9.1°C 40.1°F4.5°C 73% Calm Calm -- 30.40 in1029.5 mb 0.00 in0.0 mm 0.00 in0.0 mm 0.00 in0.0 mm
04:20 AM 48.2°F9.0°C 39.9°F4.4°C 73% Calm Calm 3.0 mph4.8 kmh 30.41 in1029.8 mb 0.00 in0.0 mm 0.00 in0.0 mm 0.00 in0.0 mm
04:25 AM 48.0°F8.9°C 39.7°F4.3°C 73% Calm Calm 5.0 mph8.0 kmh 30.41 in1029.8 mb 0.00 in0.0 mm 0.00 in0.0 mm 0.00 in0.0 mm
04:30 AM 47.8°F8.8°C 39.6°F4.2°C 73% 1.0 mph NNW1.6 kmh NNW 7.0 mph11.3 kmh 30.41 in1029.8 mb 0.00 in0.0 mm 0.00 in0.0 mm 0.00 in0.0 mm
04:35 AM 47.8°F8.8°C 39.6°F4.2°C 73% Calm Calm 5.0 mph8.0 kmh 30.42 in1030.1 mb 0.00 in0.0 mm 0.00 in0.0 mm 0.00 in0.0 mm
04:40 AM 47.7°F8.7°C 39.7°F4.3°C 74% Calm Calm 3.0 mph4.8 kmh 30.42 in1030.1 mb 0.00 in0.0 mm 0.00 in0.0 mm 0.00 in0.0 mm
04:45 AM 47.5°F8.6°C 39.6°F4.2°C 74% Calm Calm -- 30.42 in1030.1 mb 0.00 in0.0 mm 0.00 in0.0 mm 0.00 in0.0 mm
04:50 AM 47.3°F8.5°C 39.7°F4.3°C 75% Calm Calm -- 30.42 in1030.1 mb 0.00 in0.0 mm 0.00 in0.0 mm 0.00 in0.0 mm
04:55 AM 47.1°F8.4°C 39.6°F4.2°C 75% Calm Calm -- 30.42 in1030.1 mb 0.00 in0.0 mm 0.00 in0.0 mm 0.00 in0.0 mm
05:00 AM 46.9°F8.3°C 39.7°F4.3°C 76% Calm Calm 2.0 mph3.2 kmh 30.42 in1030.1 mb 0.00 in0.0 mm 0.00 in0.0 mm 0.00 in0.0 mm
05:05 AM 46.8°F8.2°C 39.6°F4.2°C 76% Calm Calm 4.0 mph6.4 kmh 30.42 in1030.1 mb 0.00 in0.0 mm 0.00 in0.0 mm 0.00 in0.0 mm
05:10 AM 46.8°F8.2°C 39.6°F4.2°C 76% Calm Calm 9.0 mph14.5 kmh 30.42 in1030.1 mb 0.00 in0.0 mm 0.00 in0.0 mm 0.00 in0.0 mm
05:15 AM 46.8°F8.2°C 39.6°F4.2°C 76% Calm Calm 2.0 mph3.2 kmh 30.42 in1030.1 mb 0.00 in0.0 mm 0.00 in0.0 mm 0.00 in0.0 mm
05:20 AM 46.6°F8.1°C 39.4°F4.1°C 76% Calm Calm -- 30.42 in1030.1 mb 0.00 in0.0 mm 0.00 in0.0 mm 0.00 in0.0 mm
05:25 AM 46.6°F8.1°C 39.7°F4.3°C 77% Calm Calm 3.0 mph4.8 kmh 30.43 in1030.5 mb 0.00 in0.0 mm 0.00 in0.0 mm 0.00 in0.0 mm
05:30 AM 46.2°F7.9°C 39.4°F4.1°C 77% Calm Calm -- 30.43 in1030.5 mb 0.00 in0.0 mm 0.00 in0.0 mm 0.00 in0.0 mm
05:35 AM 46.0°F7.8°C 39.6°F4.2°C 78% Calm Calm -- 30.43 in1030.5 mb 0.00 in0.0 mm 0.00 in0.0 mm 0.00 in0.0 mm
05:40 AM 45.7°F7.6°C 39.6°F4.2°C 79% Calm Calm -- 30.43 in1030.5 mb 0.00 in0.0 mm 0.00 in0.0 mm 0.00 in0.0 mm
05:45 AM 45.1°F7.3°C 39.7°F4.3°C 81% Calm Calm 3.0 mph4.8 kmh 30.44 in1030.8 mb 0.00 in0.0 mm 0.00 in0.0 mm 0.00 in0.0 mm
05:50 AM 44.8°F7.1°C 39.4°F4.1°C 81% Calm Calm -- 30.44 in1030.8 mb 0.00 in0.0 mm 0.00 in0.0 mm 0.00 in0.0 mm
05:55 AM 44.8°F7.1°C 39.4°F4.1°C 81% Calm Calm -- 30.44 in1030.8 mb 0.00 in0.0 mm 0.00 in0.0 mm 0.00 in0.0 mm
06:00 AM 44.8°F7.1°C 39.4°F4.1°C 81% Calm Calm -- 30.44 in1030.8 mb 0.00 in0.0 mm 0.00 in0.0 mm 0.00 in0.0 mm
06:05 AM 44.8°F7.1°C 39.4°F4.1°C 81% Calm Calm -- 30.44 in1030.8 mb 0.00 in0.0 mm 0.00 in0.0 mm 0.00 in0.0 mm
06:10 AM 44.8°F7.1°C 39.4°F4.1°C 81% Calm Calm -- 30.45 in1031.2 mb 0.00 in0.0 mm 0.00 in0.0 mm 0.00 in0.0 mm
06:15 AM 44.6°F7.0°C 39.2°F4.0°C 81% Calm Calm -- 30.45 in1031.2 mb 0.00 in0.0 mm 0.00 in0.0 mm 0.00 in0.0 mm
06:20 AM 44.4°F6.9°C 39.2°F4.0°C 82% Calm Calm -- 30.44 in1030.8 mb 0.00 in0.0 mm 0.00 in0.0 mm 0.00 in0.0 mm
06:25 AM 44.4°F6.9°C 39.0°F3.9°C 81% Calm Calm -- 30.45 in1031.2 mb 0.00 in0.0 mm 0.00 in0.0 mm 0.00 in0.0 mm
06:30 AM 44.4°F6.9°C 39.2°F4.0°C 82% Calm Calm -- 30.46 in1031.5 mb 0.00 in0.0 mm 0.00 in0.0 mm 0.00 in0.0 mm
06:35 AM 44.4°F6.9°C 39.2°F4.0°C 82% Calm Calm -- 30.46 in1031.5 mb 0.00 in0.0 mm 0.00 in0.0 mm 0.00 in0.0 mm
06:40 AM 44.4°F6.9°C 39.6°F4.2°C 83% Calm Calm -- 30.46 in1031.5 mb 0.00 in0.0 mm 0.00 in0.0 mm 0.00 in0.0 mm
06:45 AM 44.4°F6.9°C 39.6°F4.2°C 83% Calm Calm -- 30.46 in1031.5 mb 0.00 in0.0 mm 0.00 in0.0 mm 0.00 in0.0 mm
06:50 AM 45.0°F7.2°C 39.7°F4.3°C 82% Calm Calm -- 30.46 in1031.5 mb 0.00 in0.0 mm 0.00 in0.0 mm 0.00 in0.0 mm
06:55 AM 45.3°F7.4°C 40.1°F4.5°C 82% Calm Calm -- 30.46 in1031.5 mb 0.00 in0.0 mm 0.00 in0.0 mm 0.00 in0.0 mm
07:00 AM 45.3°F7.4°C 39.9°F4.4°C 81% Calm Calm -- 30.46 in1031.5 mb 0.00 in0.0 mm 0.00 in0.0 mm 0.00 in0.0 mm
07:05 AM 45.9°F7.7°C 39.4°F4.1°C 78% Calm Calm 1.0 mph1.6 kmh 30.47 in1031.8 mb 0.00 in0.0 mm 0.00 in0.0 mm 0.00 in0.0 mm
07:10 AM 46.2°F7.9°C 39.4°F4.1°C 77% Calm Calm -- 30.47 in1031.8 mb 0.00 in0.0 mm 0.00 in0.0 mm 0.00 in0.0 mm
07:15 AM 46.6°F8.1°C 40.1°F4.5°C 78% Calm Calm -- 30.47 in1031.8 mb 0.00 in0.0 mm 0.00 in0.0 mm 0.00 in0.0 mm
07:20 AM 46.6°F8.1°C 40.1°F4.5°C 78% Calm Calm -- 30.47 in1031.8 mb 0.00 in0.0 mm 0.00 in0.0 mm 0.00 in0.0 mm
07:25 AM 46.8°F8.2°C 40.3°F4.6°C 78% Calm Calm -- 30.47 in1031.8 mb 0.00 in0.0 mm 0.00 in0.0 mm 0.00 in0.0 mm
07:30 AM 46.8°F8.2°C 39.9°F4.4°C 77% Calm Calm -- 30.47 in1031.8 mb 0.00 in0.0 mm 0.00 in0.0 mm 0.00 in0.0 mm
07:35 AM 46.9°F8.3°C 39.7°F4.3°C 76% Calm Calm -- 30.47 in1031.8 mb 0.00 in0.0 mm 0.00 in0.0 mm 0.00 in0.0 mm
07:40 AM 47.1°F8.4°C 39.6°F4.2°C 75% Calm Calm 2.0 mph3.2 kmh 30.48 in1032.2 mb 0.00 in0.0 mm 0.00 in0.0 mm 0.00 in0.0 mm
07:45 AM 47.1°F8.4°C 39.6°F4.2°C 75% 1.0 mph NNW1.6 kmh NNW 4.0 mph6.4 kmh 30.48 in1032.2 mb 0.00 in0.0 mm 0.00 in0.0 mm 0.00 in0.0 mm
07:50 AM 47.1°F8.4°C 39.2°F4.0°C 74% 1.0 mph NE1.6 kmh NE 4.0 mph6.4 kmh 30.48 in1032.2 mb 0.00 in0.0 mm 0.00 in0.0 mm 0.00 in0.0 mm
07:55 AM 47.3°F8.5°C 39.4°F4.1°C 74% Calm Calm 2.0 mph3.2 kmh 30.49 in1032.5 mb 0.00 in0.0 mm 0.00 in0.0 mm 0.00 in0.0 mm
08:00 AM 47.3°F8.5°C 39.4°F4.1°C 74% 1.0 mph NNE1.6 kmh NNE 4.0 mph6.4 kmh 30.49 in1032.5 mb 0.00 in0.0 mm 0.00 in0.0 mm 0.00 in0.0 mm
08:05 AM 47.5°F8.6°C 39.6°F4.2°C 74% 2.0 mph NNE3.2 kmh NNE 7.0 mph11.3 kmh 30.49 in1032.5 mb 0.00 in0.0 mm 0.00 in0.0 mm 0.00 in0.0 mm
08:10 AM 47.5°F8.6°C 39.2°F4.0°C 73% 1.0 mph NNE1.6 kmh NNE 4.0 mph6.4 kmh 30.49 in1032.5 mb 0.00 in0.0 mm 0.00 in0.0 mm 0.00 in0.0 mm
08:15 AM 47.7°F8.7°C 39.4°F4.1°C 73% 1.0 mph NNE1.6 kmh NNE 7.0 mph11.3 kmh 30.49 in1032.5 mb 0.00 in0.0 mm 0.00 in0.0 mm 0.00 in0.0 mm
08:20 AM 47.8°F8.8°C 39.2°F4.0°C 72% 1.0 mph NE1.6 kmh NE 4.0 mph6.4 kmh 30.50 in1032.8 mb 0.00 in0.0 mm 0.00 in0.0 mm 0.00 in0.0 mm
08:25 AM 48.0°F8.9°C 39.4°F4.1°C 72% 1.0 mph NE1.6 kmh NE 5.0 mph8.0 kmh 30.50 in1032.8 mb 0.00 in0.0 mm 0.00 in0.0 mm 0.00 in0.0 mm
08:30 AM 48.2°F9.0°C 39.9°F4.4°C 73% 1.0 mph NE1.6 kmh NE 7.0 mph11.3 kmh 30.50 in1032.8 mb 0.00 in0.0 mm 0.00 in0.0 mm 0.00 in0.0 mm
08:35 AM 48.4°F9.1°C 38.7°F3.7°C 69% 2.0 mph NNE3.2 kmh NNE 9.0 mph14.5 kmh 30.50 in1032.8 mb 0.00 in0.0 mm 0.00 in0.0 mm 0.00 in0.0 mm
08:40 AM 48.6°F9.2°C 39.6°F4.2°C 71% Calm Calm 4.0 mph6.4 kmh 30.50 in1032.8 mb 0.00 in0.0 mm 0.00 in0.0 mm 0.00 in0.0 mm
08:45 AM 48.7°F9.3°C 39.0°F3.9°C 69% Calm Calm 4.0 mph6.4 kmh 30.50 in1032.8 mb 0.00 in0.0 mm 0.00 in0.0 mm 0.00 in0.0 mm
08:50 AM 48.7°F9.3°C 39.0°F3.9°C 69% 1.0 mph ENE1.6 kmh ENE 5.0 mph8.0 kmh 30.50 in1032.8 mb 0.00 in0.0 mm 0.00 in0.0 mm 0.00 in0.0 mm
08:55 AM 48.7°F9.3°C 39.0°F3.9°C 69% Calm Calm 5.0 mph8.0 kmh 30.50 in1032.8 mb 0.00 in0.0 mm 0.00 in0.0 mm 0.00 in0.0 mm
09:00 AM 49.1°F9.5°C 39.4°F4.1°C 69% Calm Calm 3.0 mph4.8 kmh 30.50 in1032.8 mb 0.00 in0.0 mm 0.00 in0.0 mm 0.00 in0.0 mm
09:05 AM 49.1°F9.5°C 39.0°F3.9°C 68% Calm Calm 3.0 mph4.8 kmh 30.50 in1032.8 mb 0.00 in0.0 mm 0.00 in0.0 mm 0.00 in0.0 mm
09:10 AM 49.3°F9.6°C 39.2°F4.0°C 68% 1.0 mph ENE1.6 kmh ENE 5.0 mph8.0 kmh 30.50 in1032.8 mb 0.00 in0.0 mm 0.00 in0.0 mm 0.00 in0.0 mm
09:15 AM 49.5°F9.7°C 38.5°F3.6°C 66% 1.0 mph NE1.6 kmh NE 5.0 mph8.0 kmh 30.50 in1032.8 mb 0.00 in0.0 mm 0.00 in0.0 mm 0.00 in0.0 mm
09:20 AM 49.5°F9.7°C 39.0°F3.9°C 67% 1.0 mph 1.6 kmh 5.0 mph8.0 kmh 30.50 in1032.8 mb 0.00 in0.0 mm 0.00 in0.0 mm 0.00 in0.0 mm
09:25 AM 49.6°F9.8°C 39.2°F4.0°C 67% 1.0 mph NNE1.6 kmh NNE 5.0 mph8.0 kmh 30.50 in1032.8 mb 0.00 in0.0 mm 0.00 in0.0 mm 0.00 in0.0 mm
09:30 AM 49.6°F9.8°C 38.3°F3.5°C 65% 1.0 mph 1.6 kmh 4.0 mph6.4 kmh 30.50 in1032.8 mb 0.00 in0.0 mm 0.00 in0.0 mm 0.00 in0.0 mm
09:35 AM 49.6°F9.8°C 38.3°F3.5°C 65% 2.0 mph NNE3.2 kmh NNE 7.0 mph11.3 kmh 30.50 in1032.8 mb 0.00 in0.0 mm 0.00 in0.0 mm 0.00 in0.0 mm
09:40 AM 49.5°F9.7°C 38.5°F3.6°C 66% Calm Calm 2.0 mph3.2 kmh 30.51 in1033.2 mb 0.00 in0.0 mm 0.00 in0.0 mm 0.00 in0.0 mm
09:45 AM 49.5°F9.7°C 38.5°F3.6°C 66% Calm Calm 4.0 mph6.4 kmh 30.51 in1033.2 mb 0.00 in0.0 mm 0.00 in0.0 mm 0.00 in0.0 mm
09:50 AM 49.5°F9.7°C 39.0°F3.9°C 67% Calm Calm 2.0 mph3.2 kmh 30.51 in1033.2 mb 0.00 in0.0 mm 0.00 in0.0 mm 0.00 in0.0 mm
09:55 AM 49.5°F9.7°C 38.5°F3.6°C 66% 1.0 mph 1.6 kmh 3.0 mph4.8 kmh 30.51 in1033.2 mb 0.00 in0.0 mm 0.00 in0.0 mm 0.00 in0.0 mm
10:00 AM 49.5°F9.7°C 38.5°F3.6°C 66% Calm Calm 3.0 mph4.8 kmh 30.51 in1033.2 mb 0.00 in0.0 mm 0.00 in0.0 mm 0.00 in0.0 mm
10:05 AM 49.6°F9.8°C 38.7°F3.7°C 66% 1.0 mph NE1.6 kmh NE 3.0 mph4.8 kmh 30.51 in1033.2 mb 0.00 in0.0 mm 0.00 in0.0 mm 0.00 in0.0 mm
10:10 AM 49.5°F9.7°C 38.5°F3.6°C 66% 1.0 mph NE1.6 kmh NE 4.0 mph6.4 kmh 30.51 in1033.2 mb 0.00 in0.0 mm 0.00 in0.0 mm 0.00 in0.0 mm
10:15 AM 49.5°F9.7°C 38.5°F3.6°C 66% 1.0 mph NNE1.6 kmh NNE 6.0 mph9.7 kmh 30.51 in1033.2 mb 0.00 in0.0 mm 0.00 in0.0 mm 0.00 in0.0 mm
10:20 AM 49.5°F9.7°C 38.5°F3.6°C 66% 1.0 mph 1.6 kmh 7.0 mph11.3 kmh 30.51 in1033.2 mb 0.00 in0.0 mm 0.00 in0.0 mm 0.00 in0.0 mm
10:25 AM 49.6°F9.8°C 38.7°F3.7°C 66% 1.0 mph 1.6 kmh 5.0 mph8.0 kmh 30.51 in1033.2 mb 0.00 in0.0 mm 0.00 in0.0 mm 0.00 in0.0 mm
10:30 AM 49.6°F9.8°C 38.3°F3.5°C 65% 1.0 mph NNE1.6 kmh NNE 9.0 mph14.5 kmh 30.51 in1033.2 mb 0.00 in0.0 mm 0.00 in0.0 mm 0.00 in0.0 mm
10:35 AM 49.5°F9.7°C 38.5°F3.6°C 66% 1.0 mph NNE1.6 kmh NNE 8.0 mph12.9 kmh 30.51 in1033.2 mb 0.00 in0.0 mm 0.00 in0.0 mm 0.00 in0.0 mm
10:40 AM 49.5°F9.7°C 38.1°F3.4°C 65% 1.0 mph NNE1.6 kmh NNE 8.0 mph12.9 kmh 30.51 in1033.2 mb 0.00 in0.0 mm 0.00 in0.0 mm 0.00 in0.0 mm
10:45 AM 49.5°F9.7°C 38.1°F3.4°C 65% 1.0 mph NE1.6 kmh NE 5.0 mph8.0 kmh 30.51 in1033.2 mb 0.00 in0.0 mm 0.00 in0.0 mm 0.00 in0.0 mm
10:50 AM 49.5°F9.7°C 38.5°F3.6°C 66% Calm Calm 4.0 mph6.4 kmh 30.51 in1033.2 mb 0.00 in0.0 mm 0.00 in0.0 mm 0.00 in0.0 mm
10:55 AM 49.5°F9.7°C 38.5°F3.6°C 66% 1.0 mph NE1.6 kmh NE 5.0 mph8.0 kmh 30.51 in1033.2 mb 0.00 in0.0 mm 0.00 in0.0 mm 0.00 in0.0 mm
11:00 AM 49.5°F9.7°C 38.1°F3.4°C 65% 1.0 mph NE1.6 kmh NE 5.0 mph8.0 kmh 30.51 in1033.2 mb 0.00 in0.0 mm 0.00 in0.0 mm 0.00 in0.0 mm
11:05 AM 49.5°F9.7°C 38.1°F3.4°C 65% 1.0 mph NNE1.6 kmh NNE 7.0 mph11.3 kmh 30.51 in1033.2 mb 0.00 in0.0 mm 0.00 in0.0 mm 0.00 in0.0 mm
11:10 AM 49.6°F9.8°C 38.3°F3.5°C 65% 1.0 mph 1.6 kmh 3.0 mph4.8 kmh 30.51 in1033.2 mb 0.00 in0.0 mm 0.00 in0.0 mm 0.00 in0.0 mm
11:15 AM 49.6°F9.8°C 37.9°F3.3°C 64% 1.0 mph NNE1.6 kmh NNE 7.0 mph11.3 kmh 30.51 in1033.2 mb 0.00 in0.0 mm 0.00 in0.0 mm 0.00 in0.0 mm
11:20 AM 49.8°F9.9°C 38.1°F3.4°C 64% Calm Calm 4.0 mph6.4 kmh 30.50 in1032.8 mb 0.00 in0.0 mm 0.00 in0.0 mm 0.00 in0.0 mm
11:25 AM 49.8°F9.9°C 38.1°F3.4°C 64% Calm Calm 5.0 mph8.0 kmh 30.51 in1033.2 mb 0.00 in0.0 mm 0.00 in0.0 mm 0.00 in0.0 mm
11:30 AM 50.0°F10.0°C 38.7°F3.7°C 65% Calm Calm 3.0 mph4.8 kmh 30.51 in1033.2 mb 0.00 in0.0 mm 0.00 in0.0 mm 0.00 in0.0 mm
11:35 AM 50.4°F10.2°C 38.7°F3.7°C 64% Calm Calm 5.0 mph8.0 kmh 30.51 in1033.2 mb 0.00 in0.0 mm 0.00 in0.0 mm 0.00 in0.0 mm
11:40 AM 50.4°F10.2°C 38.3°F3.5°C 63% 1.0 mph NNE1.6 kmh NNE 4.0 mph6.4 kmh 30.52 in1033.5 mb 0.00 in0.0 mm 0.00 in0.0 mm 0.00 in0.0 mm
11:45 AM 50.4°F10.2°C 38.3°F3.5°C 63% Calm Calm 7.0 mph11.3 kmh 30.52 in1033.5 mb 0.00 in0.0 mm 0.00 in0.0 mm 0.00 in0.0 mm
11:50 AM 50.5°F10.3°C 37.9°F3.3°C 62% 1.0 mph NE1.6 kmh NE 5.0 mph8.0 kmh 30.52 in1033.5 mb 0.00 in0.0 mm 0.00 in0.0 mm 0.00 in0.0 mm
11:55 AM 50.5°F10.3°C 38.5°F3.6°C 63% 1.0 mph NE1.6 kmh NE 9.0 mph14.5 kmh 30.52 in1033.5 mb 0.00 in0.0 mm 0.00 in0.0 mm 0.00 in0.0 mm
12:00 PM 50.7°F10.4°C 37.8°F3.2°C 61% 1.0 mph ENE1.6 kmh ENE 8.0 mph12.9 kmh 30.52 in1033.5 mb 0.00 in0.0 mm 0.00 in0.0 mm 0.00 in0.0 mm
12:05 PM 50.7°F10.4°C 39.0°F3.9°C 64% 1.0 mph NE1.6 kmh NE 7.0 mph11.3 kmh 30.52 in1033.5 mb 0.00 in0.0 mm 0.00 in0.0 mm 0.00 in0.0 mm
12:10 PM 50.7°F10.4°C 38.1°F3.4°C 62% 1.0 mph NNE1.6 kmh NNE 8.0 mph12.9 kmh 30.52 in1033.5 mb 0.00 in0.0 mm 0.00 in0.0 mm 0.00 in0.0 mm
12:15 PM 50.7°F10.4°C 39.0°F3.9°C 64% Calm Calm 3.0 mph4.8 kmh 30.52 in1033.5 mb 0.00 in0.0 mm 0.00 in0.0 mm 0.00 in0.0 mm
12:20 PM 50.5°F10.3°C 37.9°F3.3°C 62% 1.0 mph NE1.6 kmh NE 6.0 mph9.7 kmh 30.53 in1033.9 mb 0.00 in0.0 mm 0.00 in0.0 mm 0.00 in0.0 mm
12:25 PM 50.7°F10.4°C 39.0°F3.9°C 64% 1.0 mph NE1.6 kmh NE 8.0 mph12.9 kmh 30.52 in1033.5 mb 0.00 in0.0 mm 0.00 in0.0 mm 0.00 in0.0 mm
12:30 PM 50.7°F10.4°C 38.1°F3.4°C 62% 3.0 mph NE4.8 kmh NE 12.0 mph19.3 kmh 30.52 in1033.5 mb 0.00 in0.0 mm 0.00 in0.0 mm 0.00 in0.0 mm
12:35 PM 50.9°F10.5°C 38.7°F3.7°C 63% 2.0 mph ENE3.2 kmh ENE 8.0 mph12.9 kmh 30.52 in1033.5 mb 0.00 in0.0 mm 0.00 in0.0 mm 0.00 in0.0 mm
12:40 PM 51.1°F10.6°C 38.1°F3.4°C 61% 1.0 mph NE1.6 kmh NE 5.0 mph8.0 kmh 30.53 in1033.9 mb 0.00 in0.0 mm 0.00 in0.0 mm 0.00 in0.0 mm
12:45 PM 51.4°F10.8°C 39.2°F4.0°C 63% 2.0 mph NE3.2 kmh NE 9.0 mph14.5 kmh 30.52 in1033.5 mb 0.00 in0.0 mm 0.00 in0.0 mm 0.00 in0.0 mm
12:50 PM 52.0°F11.1°C 39.4°F4.1°C 62% 1.0 mph NNE1.6 kmh NNE 5.0 mph8.0 kmh 30.52 in1033.5 mb 0.00 in0.0 mm 0.00 in0.0 mm 0.00 in0.0 mm
12:55 PM 52.0°F11.1°C 38.1°F3.4°C 59% 3.0 mph NE4.8 kmh NE 10.0 mph16.1 kmh 30.52 in1033.5 mb 0.00 in0.0 mm 0.00 in0.0 mm 0.00 in0.0 mm
01:00 PM 52.0°F11.1°C 38.5°F3.6°C 60% 1.0 mph ENE1.6 kmh ENE 4.0 mph6.4 kmh 30.52 in1033.5 mb 0.00 in0.0 mm 0.00 in0.0 mm 0.00 in0.0 mm
01:05 PM 52.0°F11.1°C 38.1°F3.4°C 59% 2.0 mph ENE3.2 kmh ENE 8.0 mph12.9 kmh 30.51 in1033.2 mb 0.00 in0.0 mm 0.00 in0.0 mm 0.00 in0.0 mm
01:10 PM 52.2°F11.2°C 38.3°F3.5°C 59% 1.0 mph NE1.6 kmh NE 6.0 mph9.7 kmh 30.51 in1033.2 mb 0.00 in0.0 mm 0.00 in0.0 mm 0.00 in0.0 mm
01:15 PM 52.3°F11.3°C 37.6°F3.1°C 57% 2.0 mph ENE3.2 kmh ENE 6.0 mph9.7 kmh 30.51 in1033.2 mb 0.00 in0.0 mm 0.00 in0.0 mm 0.00 in0.0 mm
01:20 PM 52.7°F11.5°C 37.9°F3.3°C 57% 1.0 mph NE1.6 kmh NE 7.0 mph11.3 kmh 30.51 in1033.2 mb 0.00 in0.0 mm 0.00 in0.0 mm 0.00 in0.0 mm
01:25 PM 53.1°F11.7°C 39.0°F3.9°C 59% 2.0 mph NE3.2 kmh NE 9.0 mph14.5 kmh 30.51 in1033.2 mb 0.00 in0.0 mm 0.00 in0.0 mm 0.00 in0.0 mm
01:30 PM 53.4°F11.9°C 37.2°F2.9°C 54% 2.0 mph NNE3.2 kmh NNE 9.0 mph14.5 kmh 30.51 in1033.2 mb 0.00 in0.0 mm 0.00 in0.0 mm 0.00 in0.0 mm
01:35 PM 53.4°F11.9°C 38.1°F3.4°C 56% 2.0 mph NNE3.2 kmh NNE 9.0 mph14.5 kmh 30.51 in1033.2 mb 0.00 in0.0 mm 0.00 in0.0 mm 0.00 in0.0 mm
01:40 PM 53.1°F11.7°C 37.8°F3.2°C 56% 1.0 mph NE1.6 kmh NE 10.0 mph16.1 kmh 30.51 in1033.2 mb 0.00 in0.0 mm 0.00 in0.0 mm 0.00 in0.0 mm
01:45 PM 52.7°F11.5°C 38.3°F3.5°C 58% 1.0 mph NNE1.6 kmh NNE 10.0 mph16.1 kmh 30.51 in1033.2 mb 0.00 in0.0 mm 0.00 in0.0 mm 0.00 in0.0 mm
01:50 PM 52.3°F11.3°C 37.0°F2.8°C 56% 1.0 mph NE1.6 kmh NE 6.0 mph9.7 kmh 30.51 in1033.2 mb 0.00 in0.0 mm 0.00 in0.0 mm 0.00 in0.0 mm
01:55 PM 52.2°F11.2°C 37.4°F3.0°C 57% Calm Calm 5.0 mph8.0 kmh 30.51 in1033.2 mb 0.00 in0.0 mm 0.00 in0.0 mm 0.00 in0.0 mm
02:00 PM 52.0°F11.1°C 37.2°F2.9°C 57% Calm Calm 3.0 mph4.8 kmh 30.50 in1032.8 mb 0.00 in0.0 mm 0.00 in0.0 mm 0.00 in0.0 mm
02:05 PM 51.6°F10.9°C 37.8°F3.2°C 59% 1.0 mph NE1.6 kmh NE 6.0 mph9.7 kmh 30.50 in1032.8 mb 0.00 in0.0 mm 0.00 in0.0 mm 0.00 in0.0 mm
02:10 PM 51.8°F11.0°C 37.9°F3.3°C 59% 1.0 mph 1.6 kmh 9.0 mph14.5 kmh 30.50 in1032.8 mb 0.00 in0.0 mm 0.00 in0.0 mm 0.00 in0.0 mm
02:15 PM 52.3°F11.3°C 39.2°F4.0°C 61% 1.0 mph NNE1.6 kmh NNE 5.0 mph8.0 kmh 30.50 in1032.8 mb 0.00 in0.0 mm 0.00 in0.0 mm 0.00 in0.0 mm
02:20 PM 52.2°F11.2°C 38.3°F3.5°C 59% 1.0 mph ENE1.6 kmh ENE 5.0 mph8.0 kmh 30.50 in1032.8 mb 0.00 in0.0 mm 0.00 in0.0 mm 0.00 in0.0 mm
02:25 PM 52.2°F11.2°C 38.7°F3.7°C 60% Calm Calm 5.0 mph8.0 kmh 30.50 in1032.8 mb 0.00 in0.0 mm 0.00 in0.0 mm 0.00 in0.0 mm
02:30 PM 52.3°F11.3°C 37.9°F3.3°C 58% 1.0 mph NNE1.6 kmh NNE 9.0 mph14.5 kmh 30.50 in1032.8 mb 0.00 in0.0 mm 0.00 in0.0 mm 0.00 in0.0 mm
02:35 PM 52.3°F11.3°C 38.5°F3.6°C 59% 1.0 mph 1.6 kmh 5.0 mph8.0 kmh 30.50 in1032.8 mb 0.00 in0.0 mm 0.00 in0.0 mm 0.00 in0.0 mm
02:40 PM 52.2°F11.2°C 37.4°F3.0°C 57% 1.0 mph NNE1.6 kmh NNE 6.0 mph9.7 kmh 30.50 in1032.8 mb 0.00 in0.0 mm 0.00 in0.0 mm 0.00 in0.0 mm
02:45 PM 52.0°F11.1°C 37.2°F2.9°C 57% 1.0 mph ENE1.6 kmh ENE 4.0 mph6.4 kmh 30.50 in1032.8 mb 0.00 in0.0 mm 0.00 in0.0 mm 0.00 in0.0 mm
02:50 PM 51.8°F11.0°C 37.4°F3.0°C 58% Calm Calm 3.0 mph4.8 kmh 30.50 in1032.8 mb 0.00 in0.0 mm 0.00 in0.0 mm 0.00 in0.0 mm
02:55 PM 52.0°F11.1°C 37.2°F2.9°C 57% 1.0 mph NNE1.6 kmh NNE 5.0 mph8.0 kmh 30.50 in1032.8 mb 0.00 in0.0 mm 0.00 in0.0 mm 0.00 in0.0 mm
03:00 PM 51.8°F11.0°C 37.4°F3.0°C 58% Calm Calm 6.0 mph9.7 kmh 30.50 in1032.8 mb 0.00 in0.0 mm 0.00 in0.0 mm 0.00 in0.0 mm
03:05 PM 51.6°F10.9°C 37.4°F3.0°C 58% Calm Calm 4.0 mph6.4 kmh 30.50 in1032.8 mb 0.00 in0.0 mm 0.00 in0.0 mm 0.00 in0.0 mm
03:10 PM 51.4°F10.8°C 37.2°F2.9°C 58% 1.0 mph NE1.6 kmh NE 5.0 mph8.0 kmh 30.50 in1032.8 mb 0.00 in0.0 mm 0.00 in0.0 mm 0.00 in0.0 mm
03:15 PM 51.8°F11.0°C 37.4°F3.0°C 58% 1.0 mph NNE1.6 kmh NNE 5.0 mph8.0 kmh 30.50 in1032.8 mb 0.00 in0.0 mm 0.00 in0.0 mm 0.00 in0.0 mm
03:20 PM 52.2°F11.2°C 37.4°F3.0°C 57% 1.0 mph NE1.6 kmh NE 6.0 mph9.7 kmh 30.49 in1032.5 mb 0.00 in0.0 mm 0.00 in0.0 mm 0.00 in0.0 mm
03:25 PM 52.3°F11.3°C 38.5°F3.6°C 59% Calm Calm 5.0 mph8.0 kmh 30.49 in1032.5 mb 0.00 in0.0 mm 0.00 in0.0 mm 0.00 in0.0 mm
03:30 PM 52.5°F11.4°C 36.9°F2.7°C 55% 1.0 mph NE1.6 kmh NE 5.0 mph8.0 kmh 30.49 in1032.5 mb 0.00 in0.0 mm 0.00 in0.0 mm 0.00 in0.0 mm
03:35 PM 52.3°F11.3°C 38.5°F3.6°C 59% 1.0 mph NE1.6 kmh NE 7.0 mph11.3 kmh 30.49 in1032.5 mb 0.00 in0.0 mm 0.00 in0.0 mm 0.00 in0.0 mm
03:40 PM 52.9°F11.6°C 37.6°F3.1°C 56% Calm Calm 1.0 mph1.6 kmh 30.49 in1032.5 mb 0.00 in0.0 mm 0.00 in0.0 mm 0.00 in0.0 mm
03:45 PM 52.9°F11.6°C 37.2°F2.9°C 55% 1.0 mph ENE1.6 kmh ENE 6.0 mph9.7 kmh 30.49 in1032.5 mb 0.00 in0.0 mm 0.00 in0.0 mm 0.00 in0.0 mm
03:50 PM 52.3°F11.3°C 37.6°F3.1°C 57% Calm Calm 3.0 mph4.8 kmh 30.49 in1032.5 mb 0.00 in0.0 mm 0.00 in0.0 mm 0.00 in0.0 mm
03:55 PM 52.2°F11.2°C 37.4°F3.0°C 57% Calm Calm -- 30.49 in1032.5 mb 0.00 in0.0 mm 0.00 in0.0 mm 0.00 in0.0 mm
04:00 PM 52.2°F11.2°C 37.8°F3.2°C 58% Calm Calm 4.0 mph6.4 kmh 30.49 in1032.5 mb 0.00 in0.0 mm 0.00 in0.0 mm 0.00 in0.0 mm
04:05 PM 52.0°F11.1°C 38.1°F3.4°C 59% Calm Calm 1.0 mph1.6 kmh 30.49 in1032.5 mb 0.00 in0.0 mm 0.00 in0.0 mm 0.00 in0.0 mm
04:10 PM 52.0°F11.1°C 38.1°F3.4°C 59% Calm Calm 5.0 mph8.0 kmh 30.49 in1032.5 mb 0.00 in0.0 mm 0.00 in0.0 mm 0.00 in0.0 mm
04:15 PM 51.6°F10.9°C 37.8°F3.2°C 59% Calm Calm 4.0 mph6.4 kmh 30.49 in1032.5 mb 0.00 in0.0 mm 0.00 in0.0 mm 0.00 in0.0 mm
04:20 PM 51.6°F10.9°C 38.1°F3.4°C 60% Calm Calm 3.0 mph4.8 kmh 30.49 in1032.5 mb 0.00 in0.0 mm 0.00 in0.0 mm 0.00 in0.0 mm
04:25 PM 51.4°F10.8°C 37.6°F3.1°C 59% Calm Calm -- 30.49 in1032.5 mb 0.00 in0.0 mm 0.00 in0.0 mm 0.00 in0.0 mm
04:30 PM 51.4°F10.8°C 37.6°F3.1°C 59% 1.0 mph NE1.6 kmh NE 9.0 mph14.5 kmh 30.49 in1032.5 mb 0.00 in0.0 mm 0.00 in0.0 mm 0.00 in0.0 mm
04:35 PM 51.1°F10.6°C 37.2°F2.9°C 59% Calm Calm 5.0 mph8.0 kmh 30.49 in1032.5 mb 0.00 in0.0 mm 0.00 in0.0 mm 0.00 in0.0 mm
04:40 PM 51.1°F10.6°C 37.2°F2.9°C 59% 1.0 mph NNE1.6 kmh NNE 5.0 mph8.0 kmh 30.49 in1032.5 mb 0.00 in0.0 mm 0.00 in0.0 mm 0.00 in0.0 mm
04:45 PM 50.7°F10.4°C 37.4°F3.0°C 60% 1.0 mph NE1.6 kmh NE 4.0 mph6.4 kmh 30.49 in1032.5 mb 0.00 in0.0 mm 0.00 in0.0 mm 0.00 in0.0 mm
04:50 PM 50.5°F10.3°C 37.6°F3.1°C 61% 1.0 mph NNE1.6 kmh NNE 8.0 mph12.9 kmh 30.49 in1032.5 mb 0.00 in0.0 mm 0.00 in0.0 mm 0.00 in0.0 mm
04:55 PM 50.7°F10.4°C 37.8°F3.2°C 61% 1.0 mph ENE1.6 kmh ENE 4.0 mph6.4 kmh 30.49 in1032.5 mb 0.00 in0.0 mm 0.00 in0.0 mm 0.00 in0.0 mm
05:00 PM 50.7°F10.4°C 38.1°F3.4°C 62% Calm Calm 3.0 mph4.8 kmh 30.49 in1032.5 mb 0.00 in0.0 mm 0.00 in0.0 mm 0.00 in0.0 mm
05:05 PM 50.7°F10.4°C 38.7°F3.7°C 63% Calm Calm -- 30.49 in1032.5 mb 0.00 in0.0 mm 0.00 in0.0 mm 0.00 in0.0 mm
05:10 PM 50.7°F10.4°C 38.1°F3.4°C 62% Calm Calm -- 30.49 in1032.5 mb 0.00 in0.0 mm 0.00 in0.0 mm 0.00 in0.0 mm
05:15 PM 50.5°F10.3°C 37.6°F3.1°C 61% Calm Calm -- 30.49 in1032.5 mb 0.00 in0.0 mm 0.00 in0.0 mm 0.00 in0.0 mm
05:20 PM 50.4°F10.2°C 37.8°F3.2°C 62% Calm Calm -- 30.49 in1032.5 mb 0.00 in0.0 mm 0.00 in0.0 mm 0.00 in0.0 mm
05:25 PM 50.4°F10.2°C 38.3°F3.5°C 63% Calm Calm -- 30.49 in1032.5 mb 0.00 in0.0 mm 0.00 in0.0 mm 0.00 in0.0 mm
05:30 PM 50.2°F10.1°C 38.1°F3.4°C 63% Calm Calm -- 30.49 in1032.5 mb 0.00 in0.0 mm 0.00 in0.0 mm 0.00 in0.0 mm
05:35 PM 49.8°F9.9°C 38.1°F3.4°C 64% Calm Calm -- 30.49 in1032.5 mb 0.00 in0.0 mm 0.00 in0.0 mm 0.00 in0.0 mm
05:40 PM 49.6°F9.8°C 38.3°F3.5°C 65% Calm Calm -- 30.49 in1032.5 mb 0.00 in0.0 mm 0.00 in0.0 mm 0.00 in0.0 mm
05:45 PM 49.6°F9.8°C 37.9°F3.3°C 64% Calm Calm -- 30.49 in1032.5 mb 0.00 in0.0 mm 0.00 in0.0 mm 0.00 in0.0 mm
05:50 PM 49.5°F9.7°C 38.5°F3.6°C 66% Calm Calm -- 30.49 in1032.5 mb 0.00 in0.0 mm 0.00 in0.0 mm 0.00 in0.0 mm
05:55 PM 49.3°F9.6°C 37.9°F3.3°C 65% Calm Calm -- 30.49 in1032.5 mb 0.00 in0.0 mm 0.00 in0.0 mm 0.00 in0.0 mm
06:00 PM 49.1°F9.5°C 37.8°F3.2°C 65% Calm Calm -- 30.49 in1032.5 mb 0.00 in0.0 mm 0.00 in0.0 mm 0.00 in0.0 mm
06:05 PM 48.9°F9.4°C 38.1°F3.4°C 66% Calm Calm -- 30.49 in1032.5 mb 0.00 in0.0 mm 0.00 in0.0 mm 0.00 in0.0 mm
06:10 PM 48.7°F9.3°C 37.9°F3.3°C 66% Calm Calm -- 30.49 in1032.5 mb 0.00 in0.0 mm 0.00 in0.0 mm 0.00 in0.0 mm
06:15 PM 48.6°F9.2°C 38.1°F3.4°C 67% Calm Calm -- 30.49 in1032.5 mb 0.00 in0.0 mm 0.00 in0.0 mm 0.00 in0.0 mm
06:20 PM 48.4°F9.1°C 37.9°F3.3°C 67% Calm Calm -- 30.49 in1032.5 mb 0.00 in0.0 mm 0.00 in0.0 mm 0.00 in0.0 mm
06:25 PM 48.0°F8.9°C 37.9°F3.3°C 68% Calm Calm -- 30.49 in1032.5 mb 0.00 in0.0 mm 0.00 in0.0 mm 0.00 in0.0 mm
06:30 PM 47.8°F8.8°C 38.5°F3.6°C 70% Calm Calm -- 30.49 in1032.5 mb 0.00 in0.0 mm 0.00 in0.0 mm 0.00 in0.0 mm
06:35 PM 47.7°F8.7°C 38.7°F3.7°C 71% Calm Calm -- 30.50 in1032.8 mb 0.00 in0.0 mm 0.00 in0.0 mm 0.00 in0.0 mm
06:40 PM 47.5°F8.6°C 38.5°F3.6°C 71% Calm Calm -- 30.50 in1032.8 mb 0.00 in0.0 mm 0.00 in0.0 mm 0.00 in0.0 mm
06:45 PM 47.1°F8.4°C 38.5°F3.6°C 72% Calm Calm -- 30.49 in1032.5 mb 0.00 in0.0 mm 0.00 in0.0 mm 0.00 in0.0 mm
06:50 PM 46.9°F8.3°C 38.7°F3.7°C 73% Calm Calm -- 30.50 in1032.8 mb 0.00 in0.0 mm 0.00 in0.0 mm 0.00 in0.0 mm
06:55 PM 46.8°F8.2°C 38.8°F3.8°C 74% Calm Calm -- 30.50 in1032.8 mb 0.00 in0.0 mm 0.00 in0.0 mm 0.00 in0.0 mm
07:00 PM 46.6°F8.1°C 38.7°F3.7°C 74% Calm Calm -- 30.50 in1032.8 mb 0.00 in0.0 mm 0.00 in0.0 mm 0.00 in0.0 mm
07:05 PM 46.2°F7.9°C 38.3°F3.5°C 74% Calm Calm -- 30.50 in1032.8 mb 0.00 in0.0 mm 0.00 in0.0 mm 0.00 in0.0 mm
07:10 PM 46.0°F7.8°C 39.2°F4.0°C 77% Calm Calm -- 30.50 in1032.8 mb 0.00 in0.0 mm 0.00 in0.0 mm 0.00 in0.0 mm
07:15 PM 45.9°F7.7°C 39.7°F4.3°C 79% Calm Calm -- 30.50 in1032.8 mb 0.00 in0.0 mm 0.00 in0.0 mm 0.00 in0.0 mm
07:20 PM 45.7°F7.6°C 39.2°F4.0°C 78% Calm Calm -- 30.50 in1032.8 mb 0.00 in0.0 mm 0.00 in0.0 mm 0.00 in0.0 mm
07:25 PM 45.3°F7.4°C 38.8°F3.8°C 78% Calm Calm -- 30.50 in1032.8 mb 0.00 in0.0 mm 0.00 in0.0 mm 0.00 in0.0 mm
07:30 PM 45.3°F7.4°C 38.8°F3.8°C 78% Calm Calm -- 30.50 in1032.8 mb 0.00 in0.0 mm 0.00 in0.0 mm 0.00 in0.0 mm
07:35 PM 45.3°F7.4°C 38.5°F3.6°C 77% Calm Calm -- 30.50 in1032.8 mb 0.00 in0.0 mm 0.00 in0.0 mm 0.00 in0.0 mm
07:40 PM 45.1°F7.3°C 38.3°F3.5°C 77% Calm Calm -- 30.50 in1032.8 mb 0.00 in0.0 mm 0.00 in0.0 mm 0.00 in0.0 mm
07:45 PM 45.1°F7.3°C 38.3°F3.5°C 77% Calm Calm -- 30.50 in1032.8 mb 0.00 in0.0 mm 0.00 in0.0 mm 0.00 in0.0 mm
07:50 PM 45.1°F7.3°C 38.3°F3.5°C 77% Calm Calm -- 30.50 in1032.8 mb 0.00 in0.0 mm 0.00 in0.0 mm 0.00 in0.0 mm
07:55 PM 45.1°F7.3°C 38.3°F3.5°C 77% Calm Calm -- 30.50 in1032.8 mb 0.00 in0.0 mm 0.00 in0.0 mm 0.00 in0.0 mm
08:00 PM 45.1°F7.3°C 37.9°F3.3°C 76% Calm Calm -- 30.50 in1032.8 mb 0.00 in0.0 mm 0.00 in0.0 mm 0.00 in0.0 mm
08:05 PM 45.1°F7.3°C 38.3°F3.5°C 77% Calm Calm -- 30.50 in1032.8 mb 0.00 in0.0 mm 0.00 in0.0 mm 0.00 in0.0 mm
08:10 PM 45.0°F7.2°C 38.1°F3.4°C 77% Calm Calm -- 30.51 in1033.2 mb 0.00 in0.0 mm 0.00 in0.0 mm 0.00 in0.0 mm
08:15 PM 45.1°F7.3°C 38.7°F3.7°C 78% Calm Calm -- 30.51 in1033.2 mb 0.00 in0.0 mm 0.00 in0.0 mm 0.00 in0.0 mm
08:20 PM 45.0°F7.2°C 38.5°F3.6°C 78% Calm Calm -- 30.51 in1033.2 mb 0.00 in0.0 mm 0.00 in0.0 mm 0.00 in0.0 mm
08:25 PM 45.0°F7.2°C 39.2°F4.0°C 80% Calm Calm -- 30.50 in1032.8 mb 0.00 in0.0 mm 0.00 in0.0 mm 0.00 in0.0 mm
08:30 PM 45.0°F7.2°C 38.8°F3.8°C 79% Calm Calm -- 30.50 in1032.8 mb 0.00 in0.0 mm 0.00 in0.0 mm 0.00 in0.0 mm
08:35 PM 44.8°F7.1°C 38.7°F3.7°C 79% Calm Calm -- 30.51 in1033.2 mb 0.00 in0.0 mm 0.00 in0.0 mm 0.00 in0.0 mm
08:40 PM 44.8°F7.1°C 39.4°F4.1°C 81% Calm Calm -- 30.51 in1033.2 mb 0.00 in0.0 mm 0.00 in0.0 mm 0.00 in0.0 mm
08:45 PM 44.8°F7.1°C 39.4°F4.1°C 81% Calm Calm -- 30.51 in1033.2 mb 0.00 in0.0 mm 0.00 in0.0 mm 0.00 in0.0 mm
08:50 PM 44.8°F7.1°C 39.0°F3.9°C 80% Calm Calm -- 30.51 in1033.2 mb 0.00 in0.0 mm 0.00 in0.0 mm 0.00 in0.0 mm
08:55 PM 44.6°F7.0°C 38.8°F3.8°C 80% Calm Calm -- 30.50 in1032.8 mb 0.00 in0.0 mm 0.00 in0.0 mm 0.00 in0.0 mm
09:00 PM 44.4°F6.9°C 38.3°F3.5°C 79% Calm Calm -- 30.50 in1032.8 mb 0.00 in0.0 mm 0.00 in0.0 mm 0.00 in0.0 mm
09:05 PM 44.4°F6.9°C 38.3°F3.5°C 79% Calm Calm -- 30.51 in1033.2 mb 0.00 in0.0 mm 0.00 in0.0 mm 0.00 in0.0 mm
09:10 PM 44.4°F6.9°C 37.9°F3.3°C 78% Calm Calm -- 30.51 in1033.2 mb 0.00 in0.0 mm 0.00 in0.0 mm 0.00 in0.0 mm
09:15 PM 44.4°F6.9°C 37.9°F3.3°C 78% Calm Calm -- 30.51 in1033.2 mb 0.00 in0.0 mm 0.00 in0.0 mm 0.00 in0.0 mm
09:20 PM 44.4°F6.9°C 37.9°F3.3°C 78% Calm Calm -- 30.51 in1033.2 mb 0.00 in0.0 mm 0.00 in0.0 mm 0.00 in0.0 mm
09:25 PM 44.4°F6.9°C 37.6°F3.1°C 77% Calm Calm -- 30.51 in1033.2 mb 0.00 in0.0 mm 0.00 in0.0 mm 0.00 in0.0 mm
09:30 PM 44.2°F6.8°C 37.8°F3.2°C 78% Calm Calm -- 30.51 in1033.2 mb 0.00 in0.0 mm 0.00 in0.0 mm 0.00 in0.0 mm
09:35 PM 44.2°F6.8°C 37.8°F3.2°C 78% Calm Calm -- 30.51 in1033.2 mb 0.00 in0.0 mm 0.00 in0.0 mm 0.00 in0.0 mm
09:40 PM 44.2°F6.8°C 37.8°F3.2°C 78% Calm Calm -- 30.51 in1033.2 mb 0.00 in0.0 mm 0.00 in0.0 mm 0.00 in0.0 mm
09:45 PM 44.1°F6.7°C 37.6°F3.1°C 78% Calm Calm -- 30.51 in1033.2 mb 0.00 in0.0 mm 0.00 in0.0 mm 0.00 in0.0 mm
09:50 PM 44.1°F6.7°C 37.6°F3.1°C 78% Calm Calm -- 30.51 in1033.2 mb 0.00 in0.0 mm 0.00 in0.0 mm 0.00 in0.0 mm
09:55 PM 44.1°F6.7°C 38.3°F3.5°C 80% Calm Calm -- 30.51 in1033.2 mb 0.00 in0.0 mm 0.00 in0.0 mm 0.00 in0.0 mm
10:00 PM 43.9°F6.6°C 38.1°F3.4°C 80% Calm Calm -- 30.51 in1033.2 mb 0.00 in0.0 mm 0.00 in0.0 mm 0.00 in0.0 mm
10:05 PM 43.9°F6.6°C 38.1°F3.4°C 80% Calm Calm -- 30.51 in1033.2 mb 0.00 in0.0 mm 0.00 in0.0 mm 0.00 in0.0 mm
10:10 PM 43.9°F6.6°C 38.1°F3.4°C 80% Calm Calm -- 30.51 in1033.2 mb 0.00 in0.0 mm 0.00 in0.0 mm 0.00 in0.0 mm
10:15 PM 43.9°F6.6°C 38.1°F3.4°C 80% Calm Calm -- 30.51 in1033.2 mb 0.00 in0.0 mm 0.00 in0.0 mm 0.00 in0.0 mm
10:20 PM 43.7°F6.5°C 38.3°F3.5°C 81% Calm Calm -- 30.50 in1032.8 mb 0.00 in0.0 mm 0.00 in0.0 mm 0.00 in0.0 mm
10:25 PM 43.7°F6.5°C 38.5°F3.6°C 82% Calm Calm -- 30.51 in1033.2 mb 0.00 in0.0 mm 0.00 in0.0 mm 0.00 in0.0 mm
10:30 PM 43.5°F6.4°C 38.3°F3.5°C 82% Calm Calm -- 30.51 in1033.2 mb 0.00 in0.0 mm 0.00 in0.0 mm 0.00 in0.0 mm
10:35 PM 43.5°F6.4°C 38.3°F3.5°C 82% Calm Calm -- 30.51 in1033.2 mb 0.00 in0.0 mm 0.00 in0.0 mm 0.00 in0.0 mm
10:40 PM 43.5°F6.4°C 38.1°F3.4°C 81% Calm Calm -- 30.51 in1033.2 mb 0.00 in0.0 mm 0.00 in0.0 mm 0.00 in0.0 mm
10:45 PM 43.5°F6.4°C 38.1°F3.4°C 81% Calm Calm -- 30.51 in1033.2 mb 0.00 in0.0 mm 0.00 in0.0 mm 0.00 in0.0 mm
10:50 PM 43.5°F6.4°C 38.1°F3.4°C 81% Calm Calm -- 30.51 in1033.2 mb 0.00 in0.0 mm 0.00 in0.0 mm 0.00 in0.0 mm
10:55 PM 43.5°F6.4°C 37.8°F3.2°C 80% Calm Calm -- 30.51 in1033.2 mb 0.00 in0.0 mm 0.00 in0.0 mm 0.00 in0.0 mm
11:00 PM 43.5°F6.4°C 37.4°F3.0°C 79% Calm Calm -- 30.51 in1033.2 mb 0.00 in0.0 mm 0.00 in0.0 mm 0.00 in0.0 mm
11:05 PM 43.5°F6.4°C 37.4°F3.0°C 79% Calm Calm -- 30.51 in1033.2 mb 0.00 in0.0 mm 0.00 in0.0 mm 0.00 in0.0 mm
11:10 PM 43.7°F6.5°C 37.9°F3.3°C 80% Calm Calm -- 30.51 in1033.2 mb 0.00 in0.0 mm 0.00 in0.0 mm 0.00 in0.0 mm
11:15 PM 43.7°F6.5°C 37.9°F3.3°C 80% Calm Calm -- 30.51 in1033.2 mb 0.00 in0.0 mm 0.00 in0.0 mm 0.00 in0.0 mm
11:20 PM 43.5°F6.4°C 38.1°F3.4°C 81% Calm Calm -- 30.51 in1033.2 mb 0.00 in0.0 mm 0.00 in0.0 mm 0.00 in0.0 mm
11:25 PM 43.5°F6.4°C 38.3°F3.5°C 82% Calm Calm -- 30.51 in1033.2 mb 0.00 in0.0 mm 0.00 in0.0 mm 0.00 in0.0 mm
11:30 PM 43.5°F6.4°C 38.3°F3.5°C 82% Calm Calm -- 30.51 in1033.2 mb 0.00 in0.0 mm 0.00 in0.0 mm 0.00 in0.0 mm
11:35 PM 43.3°F6.3°C 38.3°F3.5°C 82% Calm Calm -- 30.51 in1033.2 mb 0.00 in0.0 mm 0.00 in0.0 mm 0.00 in0.0 mm
11:40 PM 43.3°F6.3°C 37.9°F3.3°C 81% Calm Calm -- 30.51 in1033.2 mb 0.00 in0.0 mm 0.00 in0.0 mm 0.00 in0.0 mm
11:45 PM 43.3°F6.3°C 37.6°F3.1°C 80% Calm Calm -- 30.51 in1033.2 mb 0.00 in0.0 mm 0.00 in0.0 mm 0.00 in0.0 mm
11:50 PM 43.2°F6.2°C 37.4°F3.0°C 80% Calm Calm -- 30.51 in1033.2 mb 0.00 in0.0 mm 0.00 in0.0 mm 0.00 in0.0 mm
11:55 PM 43.2°F6.2°C 37.0°F2.8°C 79% Calm Calm -- 30.51 in1033.2 mb 0.00 in0.0 mm 0.00 in0.0 mm 0.00 in0.0 mm